1487556000.61,20635,11.88,73134.0,-11.67,-40.03,-40.29,0,*6B
1487556001.86,20636,11.88,73136.0,-11.65,-39.79,-40.03,0,*61
1487556003.1,20637,11.88,73138.3,-11.65,-39.85,-40.21,0,*63
1487556004.32,20638,11.88,73134.8,-11.65,-39.65,-40.03,0,*62
1487556005.56,20639,11.88,73134.5,-11.67,-39.65,-40.15,0,*66
1487556006.85,20640,11.88,73138.0,-11.67,-39.97,-40.21,0,*62
1487556008.15,20641,11.88,73136.5,-11.67,-39.79,-40.21,0,*63
1487556009.4,20642,11.88,73138.3,-11.67,-39.85,-40.15,0,*64
1487556010.67,20643,11.88,73134.3,-11.67,-39.59,-40.03,0,*63
1487556011.93,20644,11.88,73136.3,-11.65,-39.97,-40.21,0,*64
1487556013.18,20645,11.88,73136.5,-11.65,-39.65,-39.97,0,*6B
1487556014.4,20646,11.88,73132.8,-11.65,-39.65,-40.03,0,*6B
1487556015.66,20647,11.88,73136.8,-11.65,-39.97,-40.29,0,*6F
1487556016.9,20648,11.88,73132.3,-11.65,-40.03,-40.41,0,*6D
1487556018.17,20649,11.88,73136.0,-11.67,-40.03,-40.29,0,*60
1487556019.45,20650,11.88,73138.8,-11.67,-40.15,-40.41,0,*61
1487556020.71,20651,11.88,73136.5,-11.67,-40.03,-40.29,0,*69
1487556021.98,20652,11.88,73136.3,-11.65,-39.41,-39.79,0,*6B
1487556023.25,20653,11.88,73136.3,-11.67,-39.59,-39.85,0,*62
1487556024.53,20654,11.88,73138.3,-11.67,-39.79,-40.15,0,*60
1487556025.79,20655,11.88,73138.5,-11.67,-40.03,-40.21,0,*65
1487556027.06,20656,11.88,73138.0,-11.67,-40.03,-40.41,0,*60
1487556028.33,20657,11.88,73134.5,-11.65,-39.59,-39.97,0,*67
1487556029.58,20658,11.88,73132.3,-11.67,-39.65,-40.03,0,*66
1487556030.82,20659,11.88,73134.0,-11.67,-39.65,-40.03,0,*67
1487556032.09,20660,11.81,73130.5,-11.67,-39.85,-40.21,0,*63
1487556033.35,20661,11.88,73138.5,-11.65,-39.97,-40.21,0,*63
1487556034.62,20662,11.88,73138.3,-11.67,-39.85,-40.21,0,*61
1487556035.89,20663,11.88,73138.5,-11.67,-40.03,-40.29,0,*68
1487556037.11,20664,11.88,73138.5,-11.69,-39.91,-40.35,0,*69
1487556038.39,20665,11.88,73136.3,-11.67,-39.97,-40.21,0,*65
1487556039.67,20666,11.88,73138.5,-11.67,-39.79,-40.15,0,*61
1487556040.92,20667,11.88,73136.0,-11.67,-39.85,-40.15,0,*63
1487556042.16,20668,11.88,73138.0,-11.69,-39.91,-40.29,0,*68
1487556043.44,20669,11.88,73138.0,-11.71,-40.09,-40.53,0,*62
1487556044.66,20670,11.88,73136.0,-11.69,-40.03,-40.47,0,*6C
1487556045.9,20671,11.88,73136.8,-11.69,-39.85,-40.29,0,*65
1487556047.17,20672,11.81,73134.0,-11.69,-39.71,-40.21,0,*65
1487556048.42,20673,11.81,73134.3,-11.71,-39.65,-40.03,0,*68
1487556049.72,20674,11.88,73136.8,-11.71,-39.29,-39.71,0,*6C
1487556050.96,20675,11.88,73136.3,-11.69,-39.29,-39.65,0,*61
1487556052.21,20676,11.88,73136.3,-11.69,-39.15,-39.65,0,*6D
1487556053.45,20677,11.81,73132.0,-11.69,-39.53,-39.91,0,*65
1487556054.67,20678,11.88,73136.0,-11.69,-39.47,-39.91,0,*6F
1487556055.91,20679,11.88,73138.3,-11.67,-39.47,-39.85,0,*65
1487556057.15,20680,11.88,73136.0,-11.67,-39.47,-39.85,0,*63
1487556058.38,20681,11.88,73134.0,-11.69,-39.65,-39.91,0,*69
1487556059.64,20682,11.88,73134.5,-11.69,-39.29,-39.71,0,*6C
1487556060.88,20683,11.88,73132.8,-11.67,-39.47,-39.85,0,*60
1487556062.12,20684,11.88,73134.8,-11.67,-39.65,-40.03,0,*67
1487556063.4,20685,11.81,73134.3,-11.67,-39.79,-40.15,0,*6C
1487556064.67,20686,11.88,73136.5,-11.65,-39.59,-39.97,0,*6B
1487556065.97,20687,11.88,73138.5,-11.67,-39.79,-40.21,0,*69
1487556067.25,20688,11.88,73134.3,-11.67,-39.79,-40.03,0,*66
1487556068.52,20689,11.88,73138.0,-11.67,-39.59,-40.03,0,*65
1487556069.81,20690,11.81,73132.3,-11.67,-39.23,-39.79,0,*63
1487556071.05,20691,11.88,73140.3,-11.67,-39.47,-39.85,0,*63
1487556072.32,20692,11.88,73136.5,-11.67,-39.47,-39.97,0,*63
1487556073.59,20693,11.88,73138.3,-11.67,-39.79,-40.03,0,*6C
1487556074.86,20694,11.88,73134.8,-11.67,-39.47,-39.79,0,*65
1487556076.15,20695,11.88,73138.5,-11.67,-39.41,-39.79,0,*62
1487556077.42,20696,11.88,73138.8,-11.67,-39.23,-39.65,0,*68
1487556078.67,20697,11.88,73136.5,-11.65,-39.59,-39.85,0,*68
1487556079.94,20698,11.88,73138.0,-11.67,-39.47,-39.79,0,*69
1487556081.23,20699,11.88,73138.3,-11.67,-39.29,-39.79,0,*60
1487556082.51,20700,11.88,73140.8,-11.65,-39.59,-39.79,0,*64
1487556083.78,20701,11.88,73138.8,-11.67,-39.09,-39.59,0,*60
1487556085.05,20702,11.88,73138.0,-11.67,-39.09,-39.59,0,*63
1487556086.29,20703,11.88,73138.5,-11.65,-39.65,-39.97,0,*68
1487556087.53,20704,11.88,73136.0,-11.65,-39.41,-39.85,0,*6A
1487556088.78,20705,11.88,73138.0,-11.65,-39.47,-39.79,0,*6E
1487556090.0,20706,11.88,73136.3,-11.65,-39.47,-39.85,0,*6E
1487556091.27,20707,11.88,73136.5,-11.65,-39.41,-39.79,0,*6A
1487556092.48,20708,11.88,73138.0,-11.65,-39.47,-39.85,0,*60
1487556093.75,20709,11.88,73132.8,-11.61,-39.53,-39.79,0,*63
1487556095.01,20710,11.88,73134.0,-11.65,-39.41,-39.97,0,*6C
1487556096.28,20711,11.88,73132.8,-11.65,-39.41,-39.79,0,*6D
1487556097.53,20712,11.88,73134.5,-11.65,-39.47,-39.97,0,*68
1487556098.77,20713,11.88,73138.5,-11.65,-39.65,-39.97,0,*69
1487556100.02,20714,11.88,73138.0,-11.61,-39.91,-40.21,0,*62
1487556101.26,20715,11.88,73138.0,-11.61,-39.91,-40.21,0,*63
1487556102.5,20716,11.88,73136.0,-11.61,-39.91,-40.21,0,*60
1487556103.77,20717,11.88,73136.3,-11.65,-39.97,-40.41,0,*65
1487556105.03,20718,11.88,73136.8,-11.65,-39.97,-40.29,0,*64
1487556106.25,20719,11.88,73134.3,-11.65,-39.47,-39.85,0,*60
1487556107.51,20720,11.88,73134.8,-11.65,-39.97,-40.21,0,*67
1487556108.76,20721,11.88,73132.3,-11.65,-40.03,-40.41,0,*63
1487556109.97,20722,11.81,73134.0,-11.65,-40.03,-40.47,0,*66
1487556111.24,20723,11.88,73132.3,-11.65,-39.97,-40.29,0,*6C
1487556112.51,20724,11.88,73134.0,-11.67,-39.85,-40.21,0,*62
1487556113.77,20725,11.88,73134.8,-11.65,-39.97,-40.29,0,*6A
1487556115.03,20726,11.88,73134.0,-11.67,-40.03,-40.29,0,*68
1487556116.32,20727,11.88,73134.3,-11.67,-39.97,-40.29,0,*6A
1487556117.59,20728,11.88,73134.0,-11.67,-39.85,-40.21,0,*6E
1487556118.87,20729,11.88,73134.0,-11.67,-39.79,-40.15,0,*6B
1487556120.16,20730,11.88,73136.5,-11.67,-39.97,-40.21,0,*64
1487556121.42,20731,11.81,73132.3,-11.67,-39.85,-40.29,0,*6E
1487556122.7,20732,11.88,73134.8,-11.67,-39.79,-40.15,0,*61
1487556123.98,20733,11.88,73134.5,-11.65,-39.59,-39.97,0,*64
1487556125.26,20734,11.88,73138.8,-11.67,-39.97,-40.21,0,*60
1487556126.54,20735,11.88,73132.8,-11.67,-39.59,-39.85,0,*63
1487556127.78,20736,11.88,73134.8,-11.67,-39.47,-39.85,0,*6F
1487556129.02,20737,11.88,73134.8,-11.67,-39.47,-39.85,0,*6E
1487556130.29,20738,11.88,73136.0,-11.67,-39.47,-39.79,0,*62
1487556131.53,20739,11.88,73132.8,-11.67,-39.65,-40.03,0,*60
1487556132.8,20740,11.88,73132.5,-11.67,-39.47,-39.79,0,*6D
1487556134.05,20741,11.88,73136.5,-11.65,-39.79,-40.15,0,*67
1487556135.32,20742,11.88,73136.3,-11.67,-39.79,-40.15,0,*66
1487556136.62,20743,11.88,73134.5,-11.67,-39.41,-39.79,0,*68
1487556137.86,20744,11.88,73138.0,-11.67,-39.65,-40.03,0,*6A
1487556139.1,20745,11.88,73136.0,-11.65,-39.29,-39.65,0,*6F
1487556140.35,20746,11.88,73140.0,-11.65,-39.79,-40.15,0,*60
1487556141.62,20747,11.88,73138.5,-11.65,-39.41,-39.79,0,*6E
1487556142.87,20748,11.81,73134.0,-11.65,-39.65,-39.97,0,*67
1487556144.08,20749,11.88,73138.5,-11.65,-39.65,-40.03,0,*65
1487556145.35,20750,11.88,73138.3,-11.65,-39.41,-39.79,0,*68
1487556146.6,20751,11.88,73142.0,-11.65,-39.29,-39.65,0,*6A
1487556147.85,20752,11.88,73142.0,-11.65,-39.79,-40.15,0,*65
1487556149.1,20753,11.88,73136.0,-11.65,-39.79,-40.15,0,*64
1487556150.38,20754,11.88,73138.3,-11.65,-39.79,-40.21,0,*64
1487556151.62,20755,11.81,73134.3,-11.65,-39.59,-40.03,0,*67
1487556152.9,20756,11.88,73134.0,-11.67,-39.79,-40.15,0,*63
1487556154.15,20757,11.88,73134.0,-11.65,-39.79,-40.15,0,*60
1487556155.4,20758,11.88,73138.8,-11.65,-39.85,-40.21,0,*6B
1487556156.66,20759,11.88,73138.5,-11.67,-40.03,-40.41,0,*6E
1487556157.94,20760,11.88,73138.5,-11.65,-39.59,-39.97,0,*62
1487556159.16,20761,11.81,73136.3,-11.65,-39.65,-40.03,0,*6F
1487556160.45,20762,11.88,73140.8,-11.67,-39.41,-39.79,0,*6B
1487556161.67,20763,11.81,73138.0,-11.65,-39.47,-39.85,0,*6D
1487556162.91,20764,11.88,73138.3,-11.65,-39.85,-40.21,0,*64
1487556164.18,20765,11.88,73136.0,-11.61,-39.59,-39.97,0,*63
1487556165.44,20766,11.88,73138.0,-11.65,-39.23,-39.41,0,*62
1487556166.71,20767,11.88,73140.8,-11.61,-39.23,-39.59,0,*6E
1487556167.95,20768,11.81,73136.3,-11.61,-39.35,-39.71,0,*6C
1487556169.16,20769,11.88,73138.5,-11.61,-39.35,-39.91,0,*63
1487556170.43,20770,11.88,73138.3,-11.61,-39.71,-39.97,0,*6D
1487556171.69,20771,11.81,73138.8,-11.61,-39.53,-39.79,0,*6C
1487556172.96,20772,11.88,73142.3,-11.61,-39.41,-39.79,0,*6C
1487556174.23,20773,11.88,73140.8,-11.61,-39.59,-39.97,0,*64
1487556175.47,20774,11.88,73142.0,-11.61,-39.53,-39.91,0,*6F
1487556176.74,20775,11.88,73140.5,-11.61,-39.71,-39.97,0,*68
1487556177.98,20776,11.88,73142.8,-11.61,-39.53,-39.91,0,*6D
1487556179.25,20777,11.88,73142.8,-11.61,-39.15,-39.59,0,*6A
1487556180.51,20778,11.88,73140.8,-11.61,-39.41,-39.79,0,*66
1487556181.79,20779,11.88,73138.5,-11.61,-39.59,-39.97,0,*6E
1487556183.02,20780,11.88,73142.3,-11.61,-39.35,-39.71,0,*6A
1487556184.3,20781,11.88,73140.3,-11.61,-39.79,-39.97,0,*6B
1487556185.56,20782,11.81,73136.8,-11.59,-39.53,-39.91,0,*6D
1487556186.84,20783,11.88,73136.3,-11.61,-39.59,-40.09,0,*62
1487556188.11,20784,11.88,73138.0,-11.59,-39.71,-40.15,0,*69
1487556189.37,20785,11.88,73142.3,-11.61,-39.97,-40.21,0,*6C
1487556190.6,20786,11.81,73138.8,-11.61,-39.97,-40.35,0,*6A
1487556191.86,20787,11.88,73138.3,-11.61,-39.97,-40.21,0,*6E
1487556193.11,20788,11.88,73142.3,-11.61,-39.79,-40.15,0,*66
1487556194.36,20789,11.81,73138.3,-11.61,-39.59,-39.91,0,*67
1487556195.63,20790,11.88,73142.3,-11.61,-39.41,-39.79,0,*60
1487556196.9,20791,11.88,73140.0,-11.61,-39.79,-40.09,0,*63
1487556198.15,20792,11.88,73144.5,-11.61,-39.79,-40.15,0,*6D
1487556199.42,20793,11.88,73140.8,-11.59,-39.65,-40.09,0,*67
1487556200.69,20794,11.88,73140.3,-11.61,-39.71,-40.09,0,*6E
1487556201.97,20795,11.88,73138.5,-11.61,-39.79,-40.21,0,*6D
1487556203.24,20796,11.88,73140.5,-11.61,-39.71,-40.09,0,*6C
1487556204.51,20797,11.88,73142.8,-11.59,-39.65,-40.09,0,*63
1487556205.76,20798,11.88,73140.8,-11.61,-39.91,-40.21,0,*66
1487556207.02,20799,11.88,73138.8,-11.65,-39.97,-40.21,0,*65
1487556208.29,20800,11.88,73142.8,-11.61,-39.79,-40.09,0,*64
1487556209.57,20801,11.81,73138.0,-11.61,-39.71,-40.09,0,*6D
1487556210.8,20802,11.88,73142.5,-11.61,-39.97,-40.35,0,*69
1487556212.07,20803,11.88,73140.3,-11.61,-40.09,-40.41,0,*62
1487556213.32,20804,11.88,73142.0,-11.61,-39.71,-40.15,0,*65
1487556214.56,20805,11.81,73138.0,-11.61,-39.91,-40.21,0,*6D
1487556215.83,20806,11.88,73140.8,-11.65,-39.97,-40.41,0,*6A
1487556217.1,20807,11.88,73140.5,-11.65,-39.79,-40.29,0,*65
1487556218.38,20808,11.88,73142.3,-11.65,-39.59,-39.97,0,*63
1487556219.65,20809,11.88,73144.0,-11.65,-39.41,-39.97,0,*6B
1487556220.87,20810,11.88,73140.3,-11.61,-39.65,-40.15,0,*65
1487556222.11,20811,11.88,73144.5,-11.61,-39.35,-39.71,0,*6D
1487556223.35,20812,11.88,73140.5,-11.61,-39.41,-39.91,0,*63
1487556224.62,20813,11.88,73144.3,-11.59,-39.65,-40.09,0,*60
1487556225.87,20814,11.88,73146.0,-11.61,-39.59,-39.91,0,*6C
1487556227.1,20815,11.88,73146.0,-11.61,-39.35,-39.71,0,*69
1487556228.37,20816,11.88,73140.3,-11.61,-39.41,-39.79,0,*61
1487556229.64,20817,11.88,73140.3,-11.61,-39.41,-39.79,0,*60
1487556230.87,20818,11.88,73142.8,-11.61,-39.53,-39.91,0,*6A
1487556232.11,20819,11.88,73140.0,-11.61,-39.35,-39.79,0,*6D
1487556233.36,20820,11.88,73140.0,-11.61,-39.71,-40.15,0,*63
1487556234.63,20821,11.88,73142.0,-11.61,-39.79,-40.21,0,*6D
1487556235.88,20822,11.88,73142.5,-11.61,-39.91,-40.21,0,*68
1487556237.12,20823,11.88,73142.5,-11.59,-39.65,-40.15,0,*6E
1487556238.36,20824,11.88,73146.3,-11.61,-39.53,-39.91,0,*65
1487556239.6,20825,11.88,73142.8,-11.61,-39.41,-39.91,0,*67
1487556240.86,20826,11.88,73140.8,-11.59,-39.53,-39.85,0,*69
1487556242.1,20827,11.88,73140.8,-11.61,-39.41,-39.91,0,*65
1487556243.34,20828,11.88,73144.5,-11.59,-39.47,-39.85,0,*62
1487556244.55,20829,11.88,73146.3,-11.61,-39.35,-39.91,0,*68
1487556245.79,20830,11.88,73144.3,-11.61,-39.35,-39.71,0,*6E
1487556247.06,20831,11.88,73144.8,-11.59,-39.71,-40.15,0,*68
1487556248.33,20832,11.88,73144.3,-11.59,-39.91,-40.29,0,*6A
1487556249.64,20833,11.81,73140.3,-11.59,-39.79,-40.09,0,*6F
1487556250.89,20834,11.88,73144.8,-11.61,-39.79,-40.15,0,*6E
1487556252.13,20835,11.88,73146.8,-11.59,-39.65,-39.91,0,*6B
1487556253.37,20836,11.88,73146.0,-11.61,-39.35,-39.71,0,*68
1487556254.64,20837,11.88,73142.3,-11.59,-39.15,-39.65,0,*65
1487556255.91,20838,11.88,73142.5,-11.59,-39.29,-39.65,0,*65
1487556257.16,20839,11.88,73144.0,-11.59,-39.09,-39.65,0,*66
1487556258.42,20840,11.88,73144.8,-11.61,-39.41,-39.97,0,*62
1487556259.69,20841,11.88,73142.8,-11.61,-39.59,-39.97,0,*6A
1487556260.97,20842,11.81,73136.5,-11.61,-39.59,-40.09,0,*60
1487556262.23,20843,11.88,73142.0,-11.59,-39.53,-39.91,0,*6F
1487556263.48,20844,11.88,73144.8,-11.59,-39.47,-39.91,0,*6D
1487556264.74,20845,11.88,73140.3,-11.59,-39.53,-39.91,0,*69
1487556265.98,20846,11.88,73140.3,-11.59,-39.65,-40.03,0,*6A
1487556267.22,20847,11.88,73140.5,-11.59,-39.35,-39.85,0,*6E
1487556268.49,20848,11.88,73138.3,-11.59,-39.47,-39.71,0,*6F
1487556269.78,20849,11.81,73136.0,-11.59,-39.71,-40.09,0,*6A
1487556271.05,20850,11.88,73140.0,-11.59,-40.03,-40.29,0,*6B
1487556272.3,20851,11.88,73136.3,-11.61,-40.15,-40.41,0,*68
1487556273.56,20852,11.81,73138.0,-11.59,-40.03,-40.29,0,*69
1487556274.78,20853,11.88,73136.3,-11.61,-39.91,-40.15,0,*69
1487556276.03,20854,11.88,73138.3,-11.59,-39.85,-40.15,0,*60
1487556277.32,20855,11.88,73138.3,-11.59,-39.71,-40.29,0,*65
1487556278.59,20856,11.88,73138.3,-11.59,-39.91,-40.29,0,*68
1487556279.86,20857,11.88,73138.0,-11.61,-39.79,-40.21,0,*6C
1487556281.13,20858,11.88,73142.8,-11.59,-39.65,-40.29,0,*6D
1487556282.38,20859,11.88,73140.8,-11.59,-39.91,-40.35,0,*6A
1487556283.65,20860,11.88,73142.5,-11.59,-40.09,-40.47,0,*6A
1487556284.94,20861,11.81,73136.5,-11.59,-39.71,-40.29,0,*62
1487556286.18,20862,11.88,73140.0,-11.61,-39.97,-40.53,0,*6F
1487556287.45,20863,11.88,73142.5,-11.59,-39.91,-40.29,0,*6E
1487556288.68,20864,11.88,73142.0,-11.61,-39.97,-40.35,0,*69
1487556289.95,20865,11.88,73142.8,-11.61,-39.71,-40.09,0,*6F
1487556291.22,20866,11.88,73142.5,-11.61,-39.41,-39.97,0,*66
1487556292.49,20867,11.88,73140.5,-11.59,-39.71,-40.03,0,*6C
1487556293.73,20868,11.88,73140.0,-11.59,-39.91,-40.35,0,*68
1487556295.0,20869,11.88,73146.5,-11.61,-40.09,-40.41,0,*6E
1487556296.25,20870,11.88,73140.8,-11.59,-39.35,-39.65,0,*64
1487556297.49,20871,11.88,73142.8,-11.61,-39.41,-39.91,0,*66
1487556298.76,20872,11.88,73142.5,-11.61,-39.71,-40.09,0,*69
1487556300.03,20873,11.88,73144.3,-11.61,-39.71,-40.09,0,*68
1487556301.31,20874,11.88,73142.8,-11.61,-39.59,-40.09,0,*65
1487556302.58,20875,11.88,73140.5,-11.59,-39.85,-40.09,0,*6E
1487556303.82,20876,11.88,73142.0,-11.59,-39.91,-40.35,0,*67
1487556305.06,20877,11.88,73142.3,-11.59,-40.03,-40.35,0,*63
1487556306.33,20878,11.88,73142.5,-11.61,-40.09,-40.41,0,*6E
1487556307.56,20879,11.81,73140.3,-11.61,-39.97,-40.35,0,*65
1487556308.84,20880,11.88,73140.8,-11.61,-39.79,-40.21,0,*66
1487556310.05,20881,11.88,73146.0,-11.61,-39.91,-40.35,0,*64
1487556311.29,20882,11.81,73140.0,-11.61,-40.21,-40.53,0,*62
1487556312.52,20883,11.88,73146.3,-11.61,-40.21,-40.73,0,*61
1487556313.77,20884,11.88,73144.0,-11.61,-40.15,-40.41,0,*60
1487556315.04,20885,11.88,73142.3,-11.65,-40.21,-40.59,0,*6B
1487556316.27,20886,11.88,73142.3,-11.65,-39.97,-40.47,0,*64
1487556317.5,20887,11.88,73144.8,-11.65,-40.15,-40.47,0,*61
1487556318.72,20888,11.81,73138.8,-11.65,-40.15,-40.47,0,*6E
1487556319.99,20889,11.88,73144.0,-11.61,-39.71,-39.97,0,*64
1487556321.26,20890,11.81,73140.0,-11.65,-39.97,-40.41,0,*65
1487556322.53,20891,11.88,73146.0,-11.59,-39.91,-40.29,0,*63
1487556323.75,20892,11.88,73144.8,-11.65,-40.15,-40.47,0,*65
1487556324.97,20893,11.81,73140.3,-11.65,-39.65,-40.15,0,*6A
1487556326.25,20894,11.88,73144.5,-11.65,-39.79,-40.21,0,*67
1487556327.49,20895,11.88,73142.8,-11.65,-39.85,-40.21,0,*65
1487556328.74,20896,11.88,73144.0,-11.65,-39.59,-40.03,0,*67
1487556329.98,20897,11.88,73146.5,-11.65,-40.03,-40.41,0,*61
1487556331.2,20898,11.88,73140.0,-11.61,-39.91,-40.15,0,*6E
1487556332.48,20899,11.88,73144.0,-11.61,-39.79,-40.21,0,*6E
1487556333.74,20900,11.88,73140.0,-11.61,-39.97,-40.41,0,*69
1487556335.01,20901,11.88,73140.5,-11.65,-40.21,-40.59,0,*66
1487556336.24,20902,11.88,73144.8,-11.65,-40.29,-40.65,0,*62
1487556337.51,20903,11.88,73144.0,-11.65,-40.21,-40.59,0,*64
1487556338.77,20904,11.88,73142.5,-11.65,-40.21,-40.59,0,*63
1487556339.99,20905,11.81,73142.0,-11.65,-40.15,-40.65,0,*6A
1487556341.26,20906,11.88,73142.3,-11.65,-39.97,-40.29,0,*65
1487556342.53,20907,11.81,73142.5,-11.65,-39.41,-39.79,0,*64
1487556343.78,20908,11.81,73142.8,-11.65,-39.59,-40.15,0,*66
1487556345.04,20909,11.88,73142.5,-11.65,-39.97,-40.29,0,*6A
1487556346.29,20910,11.88,73142.0,-11.65,-39.85,-40.41,0,*6F
1487556347.52,20911,11.88,73142.5,-11.65,-40.15,-40.47,0,*6F
1487556348.74,20912,11.88,73140.0,-11.65,-40.15,-40.47,0,*6C
1487556350.01,20913,11.88,73142.3,-11.65,-39.79,-40.29,0,*61
1487556351.28,20914,11.81,73142.3,-11.65,-39.97,-40.41,0,*68
1487556352.57,20915,11.88,73142.8,-11.67,-39.97,-40.29,0,*65
1487556353.81,20916,11.88,73140.3,-11.65,-40.03,-40.29,0,*67
1487556355.04,20917,11.88,73140.8,-11.65,-40.21,-40.65,0,*6E
1487556356.32,20918,11.88,73144.5,-11.67,-40.15,-40.59,0,*6B
1487556357.6,20919,11.88,73144.5,-11.67,-40.15,-40.59,0,*6A
1487556358.82,20920,11.81,73142.8,-11.65,-40.15,-40.47,0,*6D
1487556360.09,20921,11.81,73142.3,-11.67,-40.03,-40.41,0,*6F
1487556361.36,20922,11.88,73144.3,-11.67,-40.03,-40.41,0,*6C
1487556362.62,20923,11.88,73140.8,-11.65,-40.21,-40.59,0,*66
1487556363.86,20924,11.81,73142.5,-11.67,-40.03,-40.47,0,*6C
1487556365.13,20925,11.88,73146.0,-11.65,-39.97,-40.29,0,*64
1487556366.37,20926,11.88,73146.5,-11.65,-40.03,-40.41,0,*6A
1487556367.64,20927,11.88,73142.5,-11.67,-40.03,-40.59,0,*60
1487556368.89,20928,11.88,73142.5,-11.67,-40.15,-40.47,0,*67
1487556370.17,20929,11.81,73140.5,-11.67,-40.15,-40.41,0,*60
1487556371.46,20930,11.88,73144.8,-11.67,-39.97,-40.41,0,*6C
1487556372.74,20931,11.88,73146.3,-11.67,-40.15,-40.59,0,*60
1487556374.01,20932,11.81,73142.3,-11.67,-39.85,-40.21,0,*6B
1487556375.3,20933,11.88,73144.5,-11.67,-39.97,-40.41,0,*6F
1487556376.57,20934,11.88,73144.3,-11.67,-40.03,-40.41,0,*6B
1487556377.81,20935,11.88,73144.8,-11.67,-39.65,-40.03,0,*62
1487556379.05,20936,11.88,73146.3,-11.67,-39.47,-39.85,0,*61
1487556380.29,20937,11.88,73142.3,-11.67,-39.65,-40.03,0,*60
1487556381.58,20938,11.88,73142.5,-11.67,-39.97,-40.29,0,*6A
1487556382.87,20939,11.81,73142.8,-11.67,-39.97,-40.41,0,*65
1487556384.14,20940,11.81,73142.0,-11.65,-39.97,-40.41,0,*69
1487556385.42,20941,11.81,73142.0,-11.67,-40.15,-40.41,0,*6E
1487556386.67,20942,11.88,73146.3,-11.65,-40.15,-40.59,0,*66
1487556387.91,20943,11.81,73142.8,-11.67,-40.03,-40.47,0,*6D
1487556389.17,20944,11.81,73140.0,-11.67,-40.03,-40.29,0,*62
1487556390.44,20945,11.81,73140.5,-11.67,-40.03,-40.41,0,*6D
1487556391.69,20946,11.81,73140.5,-11.65,-40.03,-40.59,0,*65
1487556392.93,20947,11.88,73144.5,-11.69,-40.09,-40.65,0,*6D
1487556394.2,20948,11.81,73142.5,-11.71,-40.29,-40.65,0,*69
1487556395.45,20949,11.88,73142.5,-11.67,-40.15,-40.47,0,*60
1487556396.7,20950,11.88,73142.3,-11.67,-40.21,-40.47,0,*6F
1487556397.96,20951,11.88,73140.8,-11.67,-40.21,-40.47,0,*6E
1487556399.22,20952,11.88,73144.0,-11.67,-40.21,-40.65,0,*6D
1487556400.46,20953,11.88,73146.3,-11.69,-40.21,-40.53,0,*67
1487556401.68,20954,11.88,73142.8,-11.69,-40.03,-40.53,0,*60
1487556402.92,20955,11.88,73142.5,-11.71,-40.03,-40.35,0,*68
1487556404.16,20956,11.81,73142.3,-11.69,-40.09,-40.65,0,*6D
1487556405.4,20957,11.88,73144.3,-11.69,-40.21,-40.47,0,*66
1487556406.63,20958,11.88,73142.5,-11.69,-40.21,-40.47,0,*69
1487556407.87,20959,11.88,73146.8,-11.69,-40.21,-40.53,0,*6D
1487556409.11,20960,11.88,73146.5,-11.69,-40.21,-40.53,0,*67
1487556410.38,20961,11.88,73146.3,-11.71,-40.09,-40.47,0,*60
1487556411.63,20962,11.88,73146.0,-11.69,-40.09,-40.35,0,*6F
1487556412.84,20963,11.88,73144.5,-11.69,-40.03,-40.35,0,*64
1487556414.09,20964,11.81,73140.8,-11.69,-40.09,-40.53,0,*69
1487556415.3,20965,11.88,73142.5,-11.69,-40.03,-40.35,0,*62
1487556416.55,20966,11.88,73140.8,-11.71,-40.03,-40.35,0,*68
1487556417.79,20967,11.81,73140.8,-11.71,-40.03,-40.47,0,*6C
1487556419.08,20968,11.81,73140.0,-11.67,-39.97,-40.21,0,*67
1487556420.29,20969,11.88,73144.0,-11.69,-40.03,-40.47,0,*6B
1487556421.54,20970,11.81,73138.5,-11.69,-40.09,-40.47,0,*69
1487556422.76,20971,11.88,73144.8,-11.69,-39.91,-40.47,0,*67
1487556424.0,20972,11.88,73144.3,-11.69,-39.85,-40.29,0,*69
1487556425.28,20973,11.88,73144.3,-11.71,-40.09,-40.47,0,*63
1487556426.49,20974,11.88,73142.5,-11.69,-40.03,-40.35,0,*62
1487556427.74,20975,11.81,73140.3,-11.71,-39.65,-40.03,0,*61
1487556429.02,20976,11.88,73142.8,-11.71,-39.85,-40.21,0,*6C
1487556430.29,20977,11.81,73142.3,-11.71,-40.03,-40.29,0,*65
1487556431.53,20978,11.81,73142.8,-11.69,-39.91,-40.29,0,*66
1487556432.78,20979,11.88,73144.8,-11.71,-40.03,-40.35,0,*66
1487556434.02,20980,11.88,73146.3,-11.69,-39.91,-40.21,0,*69
1487556435.27,20981,11.81,73142.3,-11.71,-39.47,-40.03,0,*6A
1487556436.49,20982,11.88,73146.8,-11.69,-39.47,-39.91,0,*65
1487556437.79,20983,11.81,73142.8,-11.71,-39.29,-39.71,0,*6B
1487556439.06,20984,11.81,73142.8,-11.71,-39.85,-40.21,0,*61
1487556440.33,20985,11.88,73146.8,-11.69,-39.71,-40.21,0,*62
1487556441.56,20986,11.88,73142.5,-11.69,-39.91,-40.35,0,*6A
1487556442.8,20987,11.81,73144.5,-11.69,-39.71,-40.03,0,*60
1487556444.02,20988,11.81,73142.8,-11.69,-39.47,-39.85,0,*6A
1487556445.23,20989,11.88,73146.8,-11.69,-39.47,-39.85,0,*6B
1487556446.46,20990,11.88,73150.5,-11.69,-39.47,-39.91,0,*66
1487556447.72,20991,11.88,73146.5,-11.67,-39.47,-39.97,0,*6F
1487556449.01,20992,11.88,73146.8,-11.67,-39.29,-39.79,0,*64
1487556450.29,20993,11.81,73146.5,-11.67,-39.09,-39.59,0,*65
1487556451.52,20994,11.88,73148.3,-11.65,-39.03,-39.47,0,*65
1487556452.79,20995,11.88,73144.5,-11.67,-39.09,-39.59,0,*63
1487556454.01,20996,11.88,73146.8,-11.65,-39.09,-39.47,0,*6D
1487556455.25,20997,11.81,73146.3,-11.65,-39.09,-39.41,0,*6A
1487556456.46,20998,11.88,73144.3,-11.65,-39.47,-39.85,0,*67
1487556457.73,20999,11.88,73146.5,-11.65,-39.41,-39.79,0,*63
1487556458.97,21000,11.88,73144.3,-11.61,-39.41,-39.91,0,*69
1487556460.24,21001,11.88,73144.5,-11.61,-39.41,-39.71,0,*66
1487556461.5,21002,11.88,73142.5,-11.61,-39.23,-39.71,0,*61
1487556462.74,21003,11.88,73140.8,-11.61,-39.35,-39.71,0,*67
1487556464.01,21004,11.81,73140.0,-11.61,-39.41,-39.79,0,*6B
1487556465.27,21005,11.81,73140.5,-11.61,-39.53,-39.79,0,*69
1487556466.51,21006,11.81,73140.3,-11.61,-39.53,-39.91,0,*6C
1487556467.75,21007,11.88,73142.5,-11.61,-39.53,-39.91,0,*6D
1487556469.01,21008,11.88,73144.0,-11.59,-39.35,-39.71,0,*67
1487556470.28,21009,11.81,73140.3,-11.61,-39.15,-39.53,0,*6F
1487556471.55,21010,11.81,73140.0,-11.59,-38.79,-39.09,0,*68
1487556472.82,21011,11.88,73140.8,-11.59,-38.79,-39.09,0,*69
1487556474.08,21012,11.88,73146.0,-11.57,-38.79,-39.29,0,*66
1487556475.36,21013,11.88,73148.3,-11.55,-38.91,-39.41,0,*6D
1487556476.65,21014,11.88,73144.5,-11.55,-38.91,-39.29,0,*64
1487556477.88,21015,11.88,73148.5,-11.57,-38.79,-39.35,0,*6C
1487556479.17,21016,11.88,73148.3,-11.55,-38.91,-39.29,0,*66
1487556480.46,21017,11.88,73142.5,-11.55,-38.91,-39.29,0,*67
1487556481.72,21018,11.81,73144.0,-11.51,-38.85,-39.23,0,*63
1487556482.98,21019,11.88,73142.8,-11.51,-38.85,-39.23,0,*62
1487556484.26,21020,11.88,73144.8,-11.51,-38.91,-39.29,0,*67
1487556485.5,21021,11.88,73144.8,-11.49,-38.85,-39.23,0,*60
1487556486.76,21022,11.88,73146.0,-11.49,-39.23,-39.53,0,*69
1487556488.02,21023,11.81,73142.0,-11.49,-39.23,-39.59,0,*62
1487556489.31,21024,11.88,73144.3,-11.51,-39.29,-39.79,0,*64
1487556490.57,21025,11.81,73140.8,-11.49,-39.23,-39.53,0,*6E
1487556491.83,21026,11.81,73140.5,-11.49,-39.41,-39.97,0,*61
1487556493.1,21027,11.81,73140.8,-11.49,-39.23,-39.59,0,*66
1487556494.36,21028,11.88,73146.3,-11.49,-39.41,-39.79,0,*6F